Theta_e
307 299 297 296 299 301 302 301 302 302 300 299 299 298 297 297 298 301 301 299 301 297 298 298 300 300 301 303 300 300 300 300 299 298 298 298 298 298 298 297 298 298 297 299 299 299 300 300 301 302 302 302 302 302 304 304 304 306 306 306 305 307 309 308 307 306 305 303 302 302 301 300 300 300 300 299 300 300 300 301 301 302 302 303 303 304
302 297 298 301 302 303 303 304 302 301 300 299 298 297 297 298 296 300 300 298 300 296 297 301 299 299 301 302 300 300 299 298 299 298 298 297 298 298 297 297 297 297 299 299 298 298 299 300 301 301 301 300 301 301 302 302 303 304 305 305 305 306 306 306 305 304 302 301 301 299 299 298 298 298 297 296 297 297 298 298 298 299 299 300 300 301
297 296 300 303 305 302 301 301 301 299 298 299 297 297 296 297 300 302 301 299 299 297 296 299 297 298 300 302 299 299 299 300 299 299 298 297 296 296 296 297 297 297 297 297 297 298 299 300 300 300 300 300 300 301 301 302 303 303 304 304 304 304 304 304 305 304 302 302 301 300 298 297 296 296 296 296 296 296 296 296 296 296 297 297 297 297
295 298 302 305 303 301 299 299 299 299 299 298 297 295 294 299 297 294 299 298 298 298 297 298 296 298 301 301 298 297 298 296 296 296 296 297 297 296 296 297 297 297 297 296 296 296 297 298 299 299 299 299 300 300 300 301 301 302 303 303 303 303 303 302 302 301 302 301 300 299 298 297 296 294 295 295 294 294 294 294 295 295 296 295 295 296
298 302 305 304 301 301 299 299 298 297 296 299 298 298 297 298 298 297 298 297 298 298 298 297 295 296 299 298 295 295 295 294 294 294 295 296 296 297 296 296 297 297 296 296 296 296 297 297 297 298 298 299 299 299 299 300 301 302 302 303 303 303 302 302 301 300 300 299 297 297 296 296 295 295 293 293 292 292 293 293 294 294 295 295 295 295
299 303 304 301 300 299 299 298 299 299 296 298 301 299 299 300 299 299 300 297 295 296 297 295 290 293 300 300 299 294 293 293 294 293 294 294 294 294 294 295 295 296 296 296 295 295 296 296 297 297 298 298 298 297 297 299 300 301 302 302 303 303 303 303 303 302 301 299 298 296 295 293 292 290 291 290 290 291 291 292 293 294 294 294 294 295
300 302 303 301 300 300 300 299 301 300 296 296 298 302 301 299 299 299 298 295 291 289 295 297 290 289 297 296 297 293 294 293 293 294 294 294 293 294 295 295 295 294 294 295 295 295 296 296 296 296 296 297 296 296 297 298 299 300 300 301 301 301 301 302 301 302 301 299 297 296 294 293 291 289 290 292 292 292 292 293 292 293 294 294 294 294
301 299 300 302 300 300 299 297 301 301 297 295 299 301 300 299 298 298 297 296 294 299 298 295 295 289 289 297 297 295 294 293 292 293 294 293 294 294 294 295 295 295 295 295 294 295 295 295 295 294 295 295 295 296 297 297 298 298 298 299 299 299 299 299 299 298 298 296 295 293 293 292 291 290 290 291 292 293 293 292 292 293 293 293 294 293
301 298 299 299 299 298 297 300 303 303 298 298 298 300 299 299 299 299 297 295 295 293 290 293 297 289 289 296 296 295 293 292 293 293 293 293 294 294 294 294 294 295 295 295 294 294 294 294 294 294 294 295 295 296 296 296 296 297 297 297 297 296 296 296 297 296 295 295 294 293 292 291 292 292 292 292 293 293 293 292 292 292 292 292 293 293
299 300 301 302 300 297 301 299 301 302 297 299 299 299 299 299 298 298 295 294 294 290 286 292 295 288 289 297 293 294 294 294 294 294 294 294 294 294 294 294 294 294 294 295 295 294 294 294 294 294 294 294 294 295 296 295 296 296 295 295 295 294 295 295 295 295 294 294 293 293 292 292 291 292 292 293 292 292 293 292 292 292 292 292 292 292
298 298 299 300 300 301 297 296 296 299 299 299 300 298 296 296 296 295 295 294 291 285 287 294 295 292 286 295 297 295 296 298 297 295 295 294 294 294 294 294 294 293 293 293 293 293 293 293 293 293 293 293 294 295 295 295 295 294 294 294 293 293 293 294 294 294 294 294 294 293 293 293 292 293 293 292 292 292 292 291 291 291 291 291 291 291
298 297 298 300 299 298 300 295 296 297 299 300 296 295 294 292 294 292 290 291 285 284 289 291 295 295 285 291 298 298 297 299 297 295 293 293 293 294 294 294 293 293 293 293 293 292 292 292 292 293 292 292 293 293 293 294 294 293 293 293 292 292 292 293 293 294 294 294 294 294 294 293 293 292 292 291 291 291 291 291 290 291 291 290 291 290
296 296 300 298 299 299 297 296 294 296 296 297 295 294 289 287 286 284 287 282 283 284 287 289 291 289 289 295 296 296 297 297 299 298 295 294 294 294 294 294 293 294 293 293 293 292 292 291 291 292 291 292 292 292 292 293 293 292 292 292 291 291 292 292 293 293 293 293 293 293 293 293 293 292 292 292 291 291 291 291 290 290 289 289 289 289
295 300 299 299 296 299 300 294 292 290 293 294 292 291 287 285 283 281 284 286 287 286 287 288 292 286 293 295 299 297 296 298 297 298 298 296 295 294 294 294 293 293 293 293 293 292 292 292 292 292 292 292 291 291 292 292 292 292 291 291 291 291 292 292 293 293 292 293 293 293 293 293 292 292 292 291 291 291 291 291 290 289 289 289 288 288
288 289 294 296 293 299 298 299 298 296 293 293 298 295 290 290 286 281 285 282 284 286 284 288 286 286 286 291 292 293 293 294 295 296 298 297 296 295 295 294 293 293 293 293 293 293 293 292 292 292 292 291 291 291 291 291 292 291 291 291 290 290 291 292 292 292 292 292 292 293 293 293 292 292 291 291 292 291 290 290 290 290 289 289 289 288
293 293 297 300 297 299 297 301 301 299 295 296 297 299 292 289 295 287 286 286 285 285 283 283 286 292 292 292 293 293 293 292 294 294 296 295 296 295 293 293 292 292 292 293 293 293 293 293 292 292 292 291 291 291 291 291 291 291 291 291 291 291 291 291 291 292 292 292 292 292 292 291 291 291 291 291 291 291 291 290 290 289 289 289 289 289
293 291 294 296 297 297 298 299 299 302 288 293 294 288 292 297 294 287 285 285 283 284 284 288 287 291 294 291 292 292 292 292 292 293 294 295 294 294 293 293 293 292 292 292 293 292 292 292 292 292 292 291 291 291 291 291 291 291 290 290 290 291 291 291 291 291 291 291 291 291 292 292 292 291 290 290 290 290 290 290 290 289 289 289 289 290
291 292 291 294 291 294 294 296 298 297 298 295 288 293 296 299 296 290 285 286 284 282 284 288 285 287 287 286 291 291 291 291 292 292 293 294 294 293 293 293 293 293 293 293 293 293 293 292 292 292 292 291 291 290 290 291 291 291 291 290 290 290 290 290 291 291 291 291 291 291 291 291 291 290 290 290 290 290 290 290 290 289 289 288 289 289
300 290 291 293 294 294 294 296 295 297 297 295 294 301 292 286 285 291 287 280 281 281 283 287 288 288 289 289 288 290 291 291 292 292 292 292 293 293 293 294 294 294 293 292 292 292 292 292 292 292 291 291 291 291 290 291 291 291 290 290 290 290 290 290 291 291 291 291 291 291 290 290 290 290 290 291 291 290 289 289 289 288 288 288 288 287
299 290 290 291 293 294 294 294 287 291 296 296 297 294 297 292 289 287 287 288 287 282 282 283 285 284 292 293 292 293 293 293 293 291 291 292 293 293 294 294 293 293 293 292 292 292 292 292 292 291 291 290 290 290 290 290 291 290 290 290 290 290 291 291 290 290 290 291 291 291 291 290 290 291 290 290 290 289 288 288 288 288 287 286 286 286
293 295 287 288 293 293 287 291 290 293 288 289 290 290 291 289 290 290 291 288 286 284 283 283 282 286 293 294 296 297 296 295 294 292 293 293 294 294 294 294 294 294 293 293 292 292 292 292 291 292 291 291 290 290 290 290 290 290 290 290 290 289 290 290 290 290 290 291 290 290 290 290 290 289 289 289 289 288 287 287 286 286 286 286 285 284
291 291 288 287 287 287 292 297 295 295 296 292 291 290 291 288 286 283 282 290 286 285 283 283 281 288 294 294 294 294 296 298 296 295 294 294 294 294 295 295 295 294 294 293 293 293 292 292 291 291 291 290 289 289 288 289 289 289 290 290 290 290 290 290 290 290 290 290 290 289 289 289 289 289 288 288 287 286 286 285 285 285 285 284 284 283
297 294 290 285 288 290 294 292 293 292 291 294 294 293 295 293 291 287 282 285 285 287 287 286 282 286 292 294 294 293 294 294 296 297 296 296 295 295 295 296 296 296 294 294 293 293 292 292 291 291 290 289 288 289 288 288 289 289 289 289 289 289 290 291 290 290 290 289 288 288 288 287 287 287 287 286 285 285 284 284 284 283 283 282 282 282
293 289 287 289 291 291 292 294 294 292 293 292 292 293 294 290 291 290 289 289 286 286 284 285 281 287 292 294 293 293 293 293 294 296 297 296 296 295 296 296 296 295 294 294 293 293 292 292 291 290 289 288 288 288 288 288 289 289 289 289 290 289 289 290 290 289 288 287 287 287 287 287 286 286 285 284 284 283 283 283 282 282 281 281 281 280
289 289 290 286 285 287 288 290 291 292 292 290 290 292 293 295 296 292 288 289 286 287 287 285 280 287 292 293 293 292 293 293 293 293 297 296 294 296 295 296 295 294 293 293 292 292 291 291 289 289 289 288 288 288 288 288 288 288 289 289 289 289 289 289 289 288 287 287 286 286 285 285 285 285 284 284 283 282 282 281 281 280 279 279 279 279
292 291 288 284 281 280 279 280 283 284 286 289 292 292 293 293 291 288 286 287 283 287 287 285 285 291 293 293 293 293 292 292 293 293 294 296 294 294 293 294 293 293 292 292 292 291 290 290 290 289 288 288 288 288 287 288 288 288 288 288 289 288 288 288 288 288 287 286 285 285 284 284 284 284 283 282 281 281 281 280 279 279 279 278 278 278
289 293 293 290 288 287 289 288 292 294 289 286 288 290 291 293 294 291 290 287 284 287 286 287 288 288 289 292 292 292 292 291 289 290 292 292 293 294 295 294 294 293 293 292 292 291 291 290 289 289 289 288 288 288 288 288 288 288 288 288 288 288 288 288 287 287 286 285 285 284 283 283 283 283 282 281 281 280 279 278 278 277 277 277 277 277
289 288 290 291 288 288 289 290 291 294 289 290 288 288 290 289 289 288 286 285 288 287 283 289 291 287 289 292 292 291 290 291 290 292 289 293 294 294 294 294 293 293 293 293 292 291 290 290 290 289 289 288 288 288 288 288 288 287 287 287 288 287 287 287 286 286 285 285 284 283 283 283 283 282 281 280 279 278 278 277 277 276 276 276 276 275
288 286 290 289 288 287 287 287 290 291 290 290 290 289 288 289 288 286 286 290 291 286 284 289 290 288 291 292 294 293 293 290 291 293 294 295 295 294 293 292 291 292 292 292 292 292 291 290 290 290 289 288 288 287 287 287 287 287 287 287 287 287 286 286 285 285 284 284 283 283 283 282 281 281 279 278 278 277 276 276 276 275 275 275 275 275
289 287 287 287 286 285 284 285 287 287 287 286 287 290 291 289 287 287 288 290 290 288 291 290 290 290 293 294 294 294 295 293 294 296 296 294 293 293 293 292 292 292 292 292 292 292 292 291 291 290 290 289 288 287 287 287 287 287 287 286 286 286 286 285 285 284 284 283 283 283 282 281 280 279 278 277 276 276 275 275 275 274 274 274 274 274
290 286 287 286 286 285 283 284 285 285 285 284 287 288 289 289 288 287 288 288 289 289 290 290 288 288 295 296 295 295 295 295 295 294 294 294 294 293 292 292 292 292 293 293 293 293 292 292 291 291 290 289 288 287 287 287 287 287 286 286 285 285 285 285 284 283 283 283 282 282 281 280 279 278 277 276 275 275 274 274 274 273 273 273 273 272
288 285 286 285 283 283 281 283 283 284 284 284 285 287 287 287 285 286 285 287 286 286 287 287 285 287 294 296 295 294 294 294 294 294 294 294 294 293 293 293 293 293 293 293 293 293 292 291 291 290 289 289 289 288 287 287 287 287 286 286 285 285 285 285 284 284 283 283 281 281 280 279 278 277 276 275 274 273 273 272 272 272 272 272 271 271
287 286 284 285 282 282 279 282 283 282 283 281 283 286 289 288 288 288 288 289 288 289 286 285 286 293 295 293 292 293 294 294 294 294 294 294 294 294 293 293 294 294 294 294 293 293 292 291 291 291 290 290 289 289 289 288 287 286 286 285 285 285 285 284 284 283 283 282 281 280 279 278 277 275 274 273 273 272 271 271 271 271 270 270 270 270
286 286 285 287 281 279 278 281 283 281 274 278 287 293 291 288 288 286 286 288 290 291 289 292 293 294 294 292 292 292 292 293 294 295 296 295 294 293 293 293 293 293 293 294 293 293 293 293 292 292 291 291 290 290 290 289 287 286 286 286 285 284 284 284 284 283 282 280 280 279 278 277 275 274 273 272 271 271 270 270 270 270 270 270 270 270
285 286 285 286 283 278 280 281 279 274 276 285 285 287 288 291 291 288 289 289 290 291 292 291 292 289 292 293 294 294 294 290 289 289 290 291 294 294 292 292 292 292 292 292 292 292 293 293 293 293 292 291 290 290 289 288 287 287 286 284 283 284 283 283 283 282 281 279 278 277 276 275 274 273 272 270 270 270 270 269 269 269 270 270 269 269
285 286 286 284 283 281 278 280 273 275 284 283 283 284 285 286 286 288 286 288 289 291 291 291 292 293 293 292 291 289 289 287 288 288 289 290 291 291 291 291 291 291 291 292 292 292 291 291 291 291 291 291 290 288 288 287 287 285 283 284 283 283 283 283 282 281 280 278 277 276 275 274 273 272 271 270 269 269 270 269 268 268 269 268 268 269
288 287 286 282 285 276 279 279 279 284 283 285 281 282 285 283 284 284 281 285 289 290 291 291 291 292 291 291 288 286 286 286 286 287 289 289 289 290 291 290 292 292 292 293 292 291 292 291 291 290 290 289 288 288 287 287 286 284 283 283 283 282 282 282 281 280 279 278 276 275 274 273 272 271 270 269 269 268 268 268 267 268 268 267 267 267
287 286 287 282 282 284 279 277 278 278 275 281 287 288 288 288 289 289 286 283 290 290 291 291 290 291 290 286 286 285 285 283 282 285 288 288 289 290 290 291 289 289 289 288 288 288 288 288 289 289 288 287 287 287 287 286 285 284 282 282 281 281 281 281 280 280 278 277 275 274 273 272 271 270 269 268 268 267 268 267 268 267 267 266 266 266
285 286 286 284 282 282 280 276 276 275 278 285 283 284 286 285 290 289 285 279 286 287 288 288 288 288 287 286 283 284 283 280 281 284 287 287 288 289 288 288 287 287 287 287 286 286 286 286 287 287 287 286 286 286 286 285 284 283 282 281 281 280 280 280 280 279 277 276 274 273 272 270 270 269 267 267 267 266 266 266 266 267 265 265 265 265
282 284 284 282 281 282 280 278 276 280 280 282 281 283 283 285 288 286 274 276 285 285 286 287 287 287 285 285 284 283 282 279 281 284 286 288 288 288 287 286 285 285 285 285 285 285 285 285 285 285 285 285 285 286 284 284 283 282 282 281 280 279 280 280 280 279 277 275 273 271 269 269 268 267 266 266 266 265 265 266 265 264 265 264 264 264
280 281 283 279 282 282 281 279 281 282 285 282 282 283 283 285 286 277 273 280 283 284 284 285 285 286 285 284 284 282 284 287 285 284 284 283 284 284 285 285 285 285 284 284 284 285 284 284 284 284 285 285 285 284 283 283 283 282 282 280 279 279 280 280 278 276 274 272 270 269 267 267 266 265 265 265 264 265 264 265 265 264 263 262 264 264
280 281 281 283 280 280 281 278 279 282 287 283 284 283 284 284 275 275 283 284 285 284 285 285 285 287 285 284 285 285 287 287 284 285 283 284 284 285 284 283 282 282 283 284 284 283 283 283 284 285 285 285 284 282 282 282 281 282 281 280 279 280 280 277 275 274 272 270 268 267 266 265 264 264 263 263 263 263 263 263 263 263 262 263 263 261
280 279 277 278 282 282 281 278 277 274 282 283 282 282 283 280 282 283 283 284 285 285 283 284 286 287 286 284 285 286 285 284 284 284 284 284 284 284 283 282 282 282 282 282 282 283 283 283 283 284 284 283 281 281 281 281 280 281 280 279 280 279 276 275 273 272 270 268 266 265 264 263 262 262 261 261 262 262 262 262 261 261 261 260 261 260
286 279 279 281 285 277 278 275 277 284 281 284 285 281 283 286 286 285 285 282 284 284 284 285 285 286 287 285 285 285 285 284 283 284 284 284 284 284 283 284 284 284 284 284 284 283 283 283 284 283 283 281 280 279 280 279 279 280 279 279 279 275 274 272 272 270 268 266 264 263 262 261 261 261 261 261 261 260 261 261 261 261 261 262 261 262
285 282 284 280 286 282 280 284 283 283 284 285 287 287 287 289 288 287 286 285 283 283 285 285 285 286 285 285 285 285 284 285 284 285 284 284 284 284 283 283 284 284 284 283 284 283 282 283 283 283 281 279 278 277 278 279 279 278 278 279 275 273 272 271 269 267 265 264 263 262 261 261 261 260 260 260 261 261 261 260 260 261 262 261 261 262
281 282 281 282 284 286 283 283 284 284 285 285 286 287 287 287 285 286 285 285 286 286 285 285 286 285 285 285 284 284 284 285 284 284 284 284 285 285 284 284 284 284 284 284 283 283 282 282 282 282 280 278 277 276 276 277 278 277 278 276 273 272 271 268 266 265 264 262 262 261 260 260 260 260 260 260 261 261 263 262 262 262 263 262 262 262
281 281 281 280 283 283 278 281 282 283 285 284 285 285 285 285 286 286 286 287 287 286 286 287 287 285 285 284 284 284 284 285 284 284 284 284 284 285 285 284 284 283 283 283 283 282 280 280 280 280 279 278 276 275 275 275 276 277 275 272 272 270 268 266 265 264 262 262 261 260 260 260 261 260 259 259 261 261 261 262 261 261 261 262 261 261
278 283 279 281 280 280 278 281 281 281 283 285 286 285 284 285 285 285 287 287 287 286 285 285 285 284 284 283 284 284 284 285 284 284 284 284 284 284 284 284 284 284 284 284 283 281 280 279 279 279 279 279 278 275 274 274 274 274 271 271 270 267 266 265 264 263 262 262 261 261 260 262 261 262 262 261 261 262 262 262 261 261 262 262 262 261
282 282 275 281 278 280 278 280 281 281 282 283 283 284 287 288 287 285 285 284 284 283 284 284 285 284 284 284 284 284 283 283 284 284 284 285 284 284 284 284 284 284 284 283 282 280 279 279 278 279 278 278 278 275 272 272 272 270 269 269 266 265 265 264 263 263 261 262 262 261 261 262 260 262 263 262 261 262 263 262 262 261 262 262 262 262
280 277 280 279 275 276 277 278 280 277 277 282 283 284 285 286 287 286 285 283 283 283 284 283 283 284 284 284 284 284 283 283 284 284 284 284 284 284 285 284 284 284 283 283 282 279 278 278 278 278 278 278 276 273 271 270 268 267 267 266 265 265 265 263 262 261 261 261 262 261 261 262 261 261 261 261 261 261 261 263 264 263 262 261 264 266
280 281 280 277 278 277 282 281 282 283 284 284 285 286 286 286 285 284 284 284 284 284 285 284 284 284 283 283 284 283 283 283 283 284 283 284 284 284 284 285 284 283 282 281 279 277 276 277 276 276 276 276 274 272 270 268 266 265 265 264 264 265 264 263 263 262 262 261 262 262 262 262 261 260 261 261 261 261 261 262 263 267 268 267 266 267
Wind_Speed
3 7 8 9 10 9 11 13 12 11 5 6 6 9 10 10 12 11 7 5 4 4 10 12 14 14 13 12 9 8 7 6 6 7 6 5 5 4 3 3 3 3 3 3 3 4 4 4 4 4 4 4 5 5 6 7 7 7 6 6 8 6 6 6 6 7 7 8 7 9 10 10 9 9 9 10 9 10 10 11 10 10 10 11 11 10
3 9 11 13 12 9 7 9 10 10 6 9 9 9 9 9 11 9 5 6 2 3 9 10 14 13 13 14 9 8 8 8 8 8 6 6 5 4 5 4 4 4 4 2 3 4 4 4 4 4 4 4 5 6 7 7 7 7 7 8 7 6 8 8 8 8 8 8 7 8 8 9 8 9 9 9 9 9 10 12 12 11 12 12 12 11
7 11 12 12 6 4 3 1 3 7 8 8 8 8 9 9 10 9 7 5 2 2 9 8 11 12 11 9 9 8 7 5 4 3 5 6 5 5 4 4 4 4 4 4 4 3 4 4 4 4 4 4 5 5 6 7 7 7 7 7 7 7 7 8 8 8 9 9 9 10 9 10 10 10 10 10 10 10 11 12 12 12 12 12 12 12
9 11 15 9 4 3 3 3 4 6 8 8 7 8 9 7 5 7 3 1 4 4 6 7 11 12 15 5 6 4 3 4 2 2 2 2 5 5 5 5 5 5 5 5 4 5 5 4 4 4 4 4 4 5 6 6 6 6 6 7 7 8 9 9 9 10 11 12 13 12 12 12 11 10 10 11 11 12 12 13 12 12 12 13 12 13
12 2 1 9 5 8 9 7 7 7 9 9 11 10 10 9 7 7 4 2 3 9 6 8 11 13 14 11 5 4 3 4 4 5 4 3 1 2 3 3 3 6 5 6 6 5 5 5 4 4 4 4 5 5 6 6 5 5 7 7 8 9 10 10 10 12 12 12 13 12 12 11 12 10 10 10 11 11 11 11 12 12 12 12 12 12
16 3 3 6 5 7 8 8 9 8 10 9 11 13 12 11 12 10 10 8 7 9 8 7 5 6 2 9 8 7 5 6 6 6 6 6 5 5 6 6 4 3 3 5 6 5 5 5 5 4 4 5 5 6 5 5 6 6 7 7 8 8 8 8 9 10 9 9 9 9 8 9 9 9 9 10 10 9 10 10 9 11 11 12 11 11
5 6 5 7 6 7 9 10 9 9 9 9 6 3 9 10 10 10 9 2 6 5 4 3 6 4 4 7 9 7 7 7 6 6 7 6 6 6 5 6 6 6 5 5 5 5 6 5 5 5 5 5 6 5 5 5 6 7 7 7 8 7 7 7 7 6 6 8 8 10 10 10 9 11 9 9 9 9 9 9 10 10 10 11 11 12
6 6 6 5 8 8 9 10 11 10 8 9 4 1 2 4 7 7 7 8 8 4 3 6 6 7 8 6 8 8 8 8 7 9 8 7 7 7 6 6 7 7 7 6 5 5 4 4 5 5 5 5 5 5 5 5 6 7 7 8 8 7 7 7 7 9 8 10 10 11 11 10 10 10 11 10 9 9 8 9 10 9 10 11 11 11
7 9 10 10 10 9 11 10 4 11 9 2 2 2 2 4 6 6 6 7 6 5 7 7 8 5 7 5 6 9 7 9 10 11 11 10 9 9 8 7 7 7 6 6 6 6 5 4 4 5 5 5 6 5 5 5 6 6 7 8 8 9 9 9 10 10 10 10 10 10 10 11 10 10 9 9 8 8 8 10 9 9 9 10 11 11
3 1 5 10 7 10 4 7 2 8 10 3 4 5 4 1 1 4 5 5 5 5 10 8 10 6 9 5 6 5 5 8 11 12 12 11 11 10 10 9 9 7 6 5 6 5 4 4 4 4 5 6 5 6 6 6 6 7 7 9 10 10 8 9 10 11 11 11 10 10 10 12 10 9 9 8 9 8 8 10 9 9 8 8 9 10
3 2 3 3 7 1 7 7 5 5 4 7 6 5 4 3 3 2 4 4 4 10 11 12 11 9 6 4 7 6 4 5 8 9 10 11 11 11 10 11 9 8 7 6 6 6 5 4 5 5 6 6 5 5 6 6 7 7 8 9 11 10 9 9 10 11 11 10 10 10 11 12 12 11 9 9 9 8 8 8 9 8 8 8 8 8
4 5 3 2 5 4 6 6 5 2 2 6 3 5 4 3 3 4 3 3 6 8 2 0 8 12 9 3 5 6 6 4 10 13 15 15 14 13 11 10 10 9 8 7 7 7 6 6 5 5 7 6 7 7 7 6 7 7 8 9 12 10 10 9 9 10 10 10 11 11 12 12 11 10 9 10 10 9 9 8 8 7 7 8 8 8
9 8 5 6 2 8 6 5 3 3 3 4 6 6 6 3 3 5 5 6 10 8 3 2 6 2 13 9 4 3 4 4 5 8 14 16 15 14 13 12 10 9 9 8 8 8 7 7 7 7 7 7 7 6 7 7 7 8 8 9 11 11 10 10 9 11 11 11 11 11 11 11 10 10 10 9 9 8 8 8 8 8 7 7 7 7
4 5 11 8 4 8 10 10 7 4 8 9 10 9 7 7 7 7 7 5 4 3 3 4 4 5 3 8 8 5 6 5 4 3 11 14 16 15 14 12 11 9 9 8 8 8 7 8 7 7 7 7 6 7 7 7 7 6 8 9 11 11 9 9 10 10 11 11 11 10 10 9 9 9 9 9 9 8 8 7 8 7 7 7 7 7
6 4 11 13 6 13 13 12 10 6 11 12 9 10 8 5 3 6 6 8 4 0 3 2 2 3 5 2 3 5 3 4 4 3 8 11 13 13 13 11 11 10 9 8 8 8 8 8 8 7 7 7 7 8 7 7 7 8 8 9 10 11 10 10 10 10 11 10 10 9 9 9 8 8 8 8 8 8 8 8 8 7 6 6 6 6
13 8 6 4 4 12 13 6 2 7 6 9 8 4 5 7 4 6 2 3 2 0 3 4 5 2 3 4 4 3 4 3 5 5 8 12 12 13 12 12 11 10 10 9 9 9 9 8 8 7 7 7 7 8 6 7 7 8 9 9 10 11 10 10 10 9 9 9 9 10 10 10 9 8 8 8 7 7 7 7 7 7 7 6 5 5
3 7 6 4 2 6 7 2 6 1 7 8 6 7 6 6 3 0 2 2 0 2 9 5 4 6 3 3 5 5 5 6 6 8 9 12 13 13 12 11 11 11 10 9 9 9 10 9 8 7 8 7 8 7 7 8 7 9 10 10 11 10 9 10 9 9 9 9 10 9 9 9 9 9 9 8 9 8 7 7 7 6 6 5 5 4
3 2 1 6 5 1 3 4 1 2 3 8 7 8 4 2 5 1 5 2 3 8 6 7 8 6 6 6 6 7 7 7 8 9 10 11 12 13 12 12 12 12 10 10 9 9 10 9 10 8 7 8 8 9 9 9 8 8 8 10 11 11 11 9 9 9 9 9 9 9 9 9 9 8 8 8 8 7 6 6 6 5 5 5 4 4
5 9 5 3 4 4 1 3 4 1 2 3 2 2 8 6 4 8 2 8 7 9 6 6 10 10 9 6 5 9 11 11 11 10 12 13 13 14 13 13 12 11 10 11 11 10 10 10 10 9 9 9 9 9 9 8 8 8 9 9 10 11 10 10 8 8 8 8 7 7 8 8 8 8 7 7 7 7 7 7 6 5 5 4 4 4
3 7 3 2 2 5 4 7 9 9 5 1 2 3 2 2 4 6 7 2 1 8 4 4 7 6 7 7 13 11 13 13 13 12 13 15 15 14 13 14 14 13 12 12 12 11 10 10 11 10 10 10 10 9 9 9 8 10 9 10 10 10 9 9 9 9 9 7 7 8 8 8 7 7 7 7 7 7 7 6 5 5 4 4 3 3
5 3 6 5 2 6 6 9 13 13 12 9 7 8 4 3 3 3 3 5 5 6 8 8 8 3 3 4 2 9 13 13 15 14 12 12 13 14 14 14 14 13 12 12 12 11 11 11 10 10 9 9 9 8 8 8 9 9 9 10 10 11 10 10 9 9 8 7 8 8 8 8 7 8 7 8 8 7 6 5 5 3 3 2 2 2
3 4 9 4 5 8 5 2 2 3 9 12 13 14 14 10 6 6 8 2 2 3 6 5 10 1 4 3 5 8 6 8 11 11 10 11 12 13 13 14 14 13 12 12 12 11 11 11 11 10 9 8 9 9 9 8 8 9 9 9 10 10 9 9 9 8 8 7 7 8 8 8 7 7 7 7 7 6 5 4 3 2 1 2 2 2
5 2 4 5 7 8 2 3 2 1 4 4 6 10 11 8 8 7 11 4 1 5 3 2 5 3 3 2 4 5 4 6 4 7 7 8 11 12 12 12 13 12 12 13 12 11 10 11 11 10 11 11 10 9 10 10 9 10 10 10 9 9 9 8 8 8 7 7 7 8 7 7 6 6 7 7 6 6 5 4 3 2 2 2 1 1
8 2 5 5 4 3 4 3 1 1 3 5 7 4 6 13 13 8 5 2 6 4 3 4 7 3 2 3 3 3 4 2 1 3 6 7 8 10 12 13 13 12 11 11 10 9 10 10 10 9 10 10 10 10 11 9 9 10 9 9 9 9 9 8 7 7 7 7 8 8 8 7 7 7 6 6 5 5 4 4 3 2 2 1 1 1
5 5 6 6 2 3 2 3 3 2 4 8 9 8 7 5 4 1 3 1 4 9 5 8 13 3 4 2 2 2 3 3 4 2 4 7 7 9 10 10 8 9 11 12 11 11 10 10 11 11 11 11 11 10 11 10 10 10 10 9 9 8 8 7 7 8 8 8 9 8 7 7 7 6 6 5 5 5 4 4 3 3 2 2 1 1
9 5 10 11 13 11 10 12 13 12 13 7 7 7 11 13 8 4 7 5 9 6 9 9 10 4 6 2 1 1 2 3 3 5 3 4 7 8 7 7 8 9 9 10 10 11 12 12 10 10 12 11 11 11 11 11 10 10 10 10 9 9 8 8 8 8 8 8 8 8 8 7 7 7 6 6 5 5 4 4 3 3 2 2 1 1
1 1 9 13 10 10 5 3 6 9 9 12 11 12 12 10 10 7 3 7 14 3 9 11 6 4 7 7 5 5 4 3 3 3 5 6 6 7 8 9 10 10 12 14 14 11 9 9 14 14 12 11 12 12 11 11 12 11 10 10 8 8 8 8 8 8 8 8 7 7 7 6 7 6 6 6 5 4 4 3 3 3 3 2 2 2
0 4 11 12 1 3 3 3 4 5 12 11 9 13 11 11 10 11 12 12 3 3 12 5 8 6 8 10 7 6 4 2 3 5 4 6 8 8 7 7 8 8 9 9 10 13 15 15 11 12 13 13 12 12 11 11 11 11 11 11 9 9 8 7 9 9 8 8 8 8 8 7 7 6 6 5 5 4 4 3 3 3 3 2 2 3
3 6 2 3 4 5 5 2 4 5 2 2 8 9 12 11 10 15 16 10 5 9 9 3 11 9 10 12 10 10 9 10 9 8 9 8 6 7 7 8 9 10 10 10 12 12 12 12 12 14 14 13 13 14 13 11 11 10 9 8 8 9 9 9 9 9 9 8 8 8 8 7 6 5 5 5 4 4 3 3 3 3 3 3 3 2
2 4 2 0 2 2 3 3 2 0 1 2 4 5 9 11 14 14 13 12 9 9 8 3 7 8 7 6 9 9 9 8 8 7 6 7 8 8 8 9 9 10 11 12 13 13 13 13 12 13 13 13 15 15 14 12 12 12 11 9 9 8 8 9 8 9 9 8 8 8 8 7 6 6 6 5 4 3 3 3 3 3 3 3 3 2
4 3 5 1 1 1 2 2 2 1 0 3 7 8 9 7 9 12 11 10 8 12 12 6 3 10 6 6 5 4 6 4 4 7 8 7 8 8 8 8 8 9 10 11 11 12 11 11 11 12 14 15 15 15 14 12 12 11 10 9 9 9 9 9 10 9 9 9 9 9 8 7 7 6 6 5 4 3 3 3 2 3 3 3 2 2
2 2 2 0 3 3 2 3 3 3 2 4 11 14 11 9 10 10 9 6 7 10 7 4 8 11 2 6 6 8 7 8 9 8 7 6 7 8 8 8 7 7 8 9 8 8 9 10 12 13 14 14 14 14 13 13 10 10 11 11 11 9 9 9 9 10 9 9 9 9 9 7 7 7 6 4 3 2 2 2 2 2 2 2 2 2
2 4 4 3 4 2 2 2 3 4 2 6 16 14 9 7 8 7 6 6 7 4 5 11 11 8 5 6 6 8 8 9 8 7 6 6 6 6 7 6 4 4 6 6 7 9 10 11 12 13 12 12 13 13 13 11 11 12 12 11 10 10 11 10 9 9 9 8 9 9 8 7 6 5 5 4 3 3 2 2 3 3 3 2 2 1
4 3 2 0 2 2 2 2 1 2 4 9 4 5 17 17 15 11 10 11 11 11 10 10 10 1 7 9 10 9 9 9 8 4 0 4 5 5 4 3 4 6 6 5 6 8 9 8 9 11 12 13 14 14 13 13 12 12 12 11 11 11 11 11 10 9 9 8 8 8 8 7 6 5 5 4 4 3 3 3 3 3 2 2 1 1
6 4 4 1 3 3 3 5 3 7 11 2 3 4 4 4 10 14 16 15 14 13 14 14 14 5 8 8 7 5 1 5 6 3 0 0 1 2 4 6 7 8 6 5 6 7 8 9 9 9 10 11 11 10 10 9 10 11 11 11 11 11 11 10 9 8 8 8 8 8 6 7 6 6 5 5 4 3 3 3 3 3 2 1 1 1
6 6 4 2 3 3 3 6 5 5 1 1 1 3 2 2 1 4 9 10 9 11 13 14 13 10 7 5 4 5 4 3 2 1 3 4 3 4 6 8 8 7 7 7 7 7 7 8 9 9 9 8 8 9 10 10 10 10 9 9 10 10 10 9 8 8 8 8 7 8 7 6 6 6 5 5 4 4 4 4 3 3 2 1 1 1
3 2 2 4 3 5 4 8 8 8 13 8 4 5 8 7 6 9 7 11 13 11 12 11 13 8 3 4 5 5 4 2 4 5 6 9 8 8 10 7 4 4 4 2 2 3 3 4 5 5 5 6 8 8 9 10 10 10 10 10 9 9 9 8 9 9 9 8 8 8 8 6 7 6 6 5 5 4 4 4 3 3 2 2 1 2
2 6 2 2 4 5 4 5 4 5 10 9 2 4 11 6 9 10 8 10 8 14 12 11 10 8 5 6 6 6 4 0 6 5 5 8 7 7 4 1 4 4 3 4 4 4 3 3 3 5 7 8 9 9 9 10 10 9 9 9 8 9 8 9 9 9 8 8 7 8 8 6 6 7 6 5 5 5 4 4 3 3 2 2 2 2
1 1 1 7 4 5 7 9 9 9 10 1 4 5 7 2 6 4 3 10 4 6 6 8 8 5 4 7 7 6 3 3 5 2 3 3 4 4 5 4 4 3 3 3 3 3 4 4 5 6 6 8 9 9 9 9 12 9 9 9 9 8 9 9 9 8 9 8 8 8 6 6 6 6 6 6 5 4 4 4 3 3 2 2 2 2
5 5 5 7 11 9 7 8 11 5 8 1 3 5 3 1 9 6 2 6 5 9 6 6 8 6 4 6 8 5 4 4 5 1 2 1 1 2 3 4 5 5 4 3 2 2 3 5 6 6 8 9 9 9 9 10 10 10 12 9 7 9 9 9 9 8 8 8 8 6 6 6 6 6 6 6 5 4 4 3 3 3 3 2 1 1
5 4 7 11 10 13 13 10 6 8 1 4 7 6 4 1 2 7 8 2 2 4 3 3 4 4 6 7 6 3 5 3 3 4 2 1 2 1 1 2 2 2 5 5 5 5 4 5 6 7 8 7 8 8 8 8 11 9 9 8 8 12 10 7 7 8 8 8 7 6 6 5 6 6 5 5 5 4 3 3 3 4 3 2 1 1
3 4 3 6 12 14 13 11 11 8 3 9 4 9 8 7 5 8 1 3 8 4 4 6 5 4 6 6 5 5 1 3 5 3 3 2 1 1 3 3 3 3 2 3 5 6 5 5 6 5 5 5 6 6 8 8 11 11 8 9 12 12 6 7 8 8 8 7 7 7 6 6 6 5 4 4 3 4 3 3 3 3 3 2 1 1
10 8 9 12 5 3 4 12 7 12 2 10 12 6 3 5 2 4 5 2 2 4 6 4 4 4 6 4 6 5 2 2 3 2 1 2 2 2 4 5 5 6 6 6 5 6 6 6 7 7 7 4 6 5 5 9 11 10 9 12 13 6 7 7 8 8 7 7 7 6 6 6 7 5 4 3 3 3 3 4 4 3 3 2 2 3
8 5 6 6 8 7 12 11 8 2 7 11 16 9 7 2 4 6 6 3 0 2 3 4 3 4 4 5 3 4 3 1 1 2 2 2 3 1 2 4 4 3 5 6 6 8 6 6 5 6 5 4 5 3 5 10 11 10 11 13 6 8 7 6 6 7 9 8 7 7 6 6 6 5 4 4 4 3 3 3 3 3 3 2 2 2
10 9 1 4 8 7 7 4 2 3 13 10 1 4 9 6 6 5 4 6 6 3 3 3 4 4 4 4 4 2 1 3 5 4 4 5 5 5 5 6 6 7 8 7 7 6 5 8 9 7 6 5 4 4 7 8 11 10 13 8 9 8 9 9 10 10 10 8 6 6 6 6 5 5 4 4 4 4 4 4 4 2 3 3 2 2
6 1 2 0 3 4 4 4 2 3 10 7 3 4 5 7 3 3 5 5 5 5 6 5 4 4 5 4 3 3 4 5 4 5 6 7 6 6 6 4 3 4 4 3 4 8 7 6 4 5 6 6 7 6 5 9 8 13 10 7 8 8 9 11 11 10 10 8 6 6 7 7 6 5 4 4 3 3 2 3 3 2 2 2 2 3
4 3 1 2 1 4 4 5 7 8 5 5 4 3 3 3 3 2 3 3 5 5 5 2 3 4 5 5 5 5 5 4 4 4 5 6 8 7 7 7 7 7 7 6 10 6 5 6 6 8 8 9 7 7 7 10 9 4 3 7 7 9 10 11 11 11 8 6 6 6 6 6 5 5 5 4 3 3 3 3 3 2 2 3 3 3
3 8 2 4 1 4 0 6 3 4 2 1 2 3 3 3 2 3 1 3 4 4 4 4 4 4 5 4 6 6 7 5 5 5 6 6 7 6 7 8 8 7 7 8 6 4 4 6 9 10 10 11 11 10 9 9 9 5 5 6 9 10 11 11 12 11 7 7 6 5 5 4 6 6 5 5 4 4 4 3 3 3 4 4 4 4
4 11 3 6 4 3 3 1 3 4 1 3 3 4 3 3 4 5 4 3 3 3 4 3 4 5 7 6 6 6 6 7 7 7 7 6 6 6 6 7 8 9 9 6 6 6 9 10 11 12 10 11 6 5 5 4 4 4 6 7 9 11 12 12 9 8 9 7 6 5 5 4 5 4 4 4 4 3 3 4 5 5 4 3 2 3
4 5 5 6 3 7 7 7 9 5 3 6 7 9 9 6 4 4 5 5 5 5 5 5 5 6 6 5 6 6 6 9 9 8 6 8 8 7 6 6 7 8 8 6 4 6 7 7 8 8 9 8 4 6 7 7 6 4 4 7 9 11 12 11 9 7 6 5 5 5 5 5 5 4 3 3 3 3 3 6 8 6 4 3 8 11
9 8 9 7 7 5 6 9 10 5 2 5 9 9 8 6 6 5 5 5 6 5 5 5 5 4 6 7 7 7 6 8 10 7 6 7 7 7 7 8 8 8 8 5 4 5 7 8 7 6 7 6 5 7 8 8 8 7 6 7 8 10 10 12 8 6 6 5 5 6 6 5 5 4 4 3 2 2 2 1 5 13 14 11 9 10
Wind_Direction
164 212 216 219 231 230 219 222 237 264 318 298 286 275 267 272 272 268 258 127 114 278 255 261 265 266 264 265 168 164 169 186 186 189 181 181 172 170 162 149 128 115 71 59 42 43 36 40 40 49 49 58 52 48 56 62 58 59 69 62 57 59 75 79 74 71 72 75 79 74 71 73 65 62 59 56 49 46 42 39 40 39 39 39 39 38
198 231 231 235 246 267 255 228 242 257 268 271 274 272 269 257 267 273 284 121 141 255 273 280 275 262 267 268 166 166 180 192 195 191 187 175 177 162 168 152 156 114 113 122 91 73 61 51 50 61 61 47 60 51 56 60 60 62 58 62 63 61 65 68 71 76 67 59 66 83 78 79 66 62 58 56 48 47 44 42 39 38 38 39 39 35
209 225 233 240 248 108 56 279 280 265 267 255 256 263 267 260 268 270 242 141 180 170 275 273 272 273 263 266 149 184 198 169 160 205 187 175 173 177 166 161 148 144 133 115 100 85 83 67 59 63 61 53 56 62 63 64 71 67 67 67 69 69 72 71 78 83 81 80 77 82 86 84 81 68 70 68 64 56 53 47 43 41 39 38 38 37
239 236 233 239 146 199 180 214 229 249 247 254 241 236 244 274 264 278 130 84 173 236 309 307 290 276 268 214 147 117 155 133 147 194 163 214 189 185 173 163 160 144 140 127 109 102 86 81 76 70 66 61 60 63 58 57 65 67 69 74 80 79 79 79 77 83 87 87 87 83 86 85 85 86 78 73 64 60 56 52 47 44 42 42 42 38
232 12 42 195 182 218 242 216 224 231 247 223 232 249 258 254 237 243 271 175 196 243 249 268 273 270 251 212 171 150 140 163 177 179 182 181 159 101 94 131 159 146 139 129 124 106 109 101 80 70 68 73 72 59 49 44 56 66 71 77 83 83 84 87 92 95 100 99 95 97 97 97 97 89 79 75 67 62 59 58 49 47 46 47 47 45
249 182 133 158 178 215 225 240 219 229 254 258 231 227 249 267 272 265 272 289 286 282 179 229 287 268 185 195 195 147 167 192 173 187 189 174 173 177 181 168 144 110 110 128 121 119 113 109 109 96 88 80 79 66 52 49 58 68 74 78 79 83 83 88 96 106 108 111 113 112 107 99 89 82 69 67 71 67 63 62 60 55 50 50 50 48
263 114 180 178 191 218 223 246 241 213 253 258 279 217 238 258 265 268 268 135 268 264 108 233 237 282 158 192 165 156 177 177 165 197 184 172 173 182 177 163 160 153 136 114 118 125 126 123 118 106 89 83 76 66 63 65 68 70 72 70 72 76 73 72 80 87 92 84 81 82 85 90 90 94 86 84 82 82 78 73 67 61 53 50 51 49
155 173 184 210 224 225 231 238 229 218 241 255 56 125 192 252 244 244 234 233 260 316 178 202 247 272 283 279 139 158 177 176 182 191 185 182 176 181 167 160 150 145 142 139 137 125 115 114 118 110 98 89 83 78 76 74 73 73 74 76 76 74 76 74 76 78 83 92 91 94 92 89 90 89 95 91 85 83 81 76 71 67 60 53 50 50
186 176 192 205 214 225 231 242 202 195 226 280 82 48 214 258 265 244 236 241 247 298 265 198 205 251 258 221 137 161 186 196 198 189 188 180 177 171 165 157 152 148 143 145 138 134 125 113 103 104 95 86 81 76 75 78 78 80 82 83 83 82 78 76 76 81 84 90 96 97 99 97 93 95 95 96 91 85 81 78 74 71 68 62 54 50
29 132 203 213 202 225 186 65 66 182 228 131 119 78 80 95 106 227 232 236 238 243 246 230 182 248 265 202 173 180 249 219 199 183 182 177 171 170 165 158 157 147 143 141 134 129 118 108 90 91 95 89 83 86 90 90 90 88 90 91 89 83 82 82 83 87 88 91 95 97 99 102 102 100 96 93 92 86 82 79 74 68 64 60 57 52
117 135 355 247 219 288 85 63 35 24 58 126 146 125 121 149 172 189 241 247 261 242 245 231 198 218 283 237 193 192 204 214 152 165 166 166 167 168 165 160 158 157 152 147 142 136 128 113 116 114 107 101 96 94 94 91 94 95 96 96 89 86 86 85 86 89 92 94 95 95 96 96 97 97 97 94 88 86 82 80 75 71 66 60 56 52
171 134 174 190 82 109 109 92 56 34 117 168 160 182 166 193 187 224 205 221 238 255 119 299 211 197 233 237 214 78 73 123 156 172 169 170 171 168 164 161 160 157 157 155 152 148 142 142 134 129 122 117 108 105 98 95 94 96 98 99 95 87 86 85 88 91 93 94 92 92 93 93 93 95 94 90 88 84 81 77 76 72 68 61 57 53
221 204 170 108 239 158 166 147 101 120 162 205 179 185 195 196 155 213 188 208 217 245 115 82 96 222 237 255 76 125 141 143 170 173 173 168 166 163 160 159 159 159 158 162 161 155 159 155 151 144 133 126 119 110 108 102 99 99 100 100 98 93 92 93 94 94 93 92 90 91 90 88 89 89 90 89 86 83 80 74 72 69 64 59 54 47
241 182 185 175 124 218 182 193 155 184 192 191 196 183 193 222 212 232 202 227 245 82 277 107 188 242 314 234 264 157 109 106 83 148 166 165 163 161 158 157 158 160 163 166 163 163 162 157 152 146 144 134 124 119 110 107 105 105 106 105 103 103 102 101 97 95 93 89 90 91 94 95 95 93 90 88 83 79 76 74 72 69 66 63 57 51
235 217 209 164 218 166 202 214 197 192 168 200 201 195 210 221 231 227 213 219 234 198 108 225 149 232 174 170 65 82 78 88 86 77 155 158 155 153 154 154 155 162 166 168 167 169 163 158 151 153 147 139 134 130 122 118 116 114 113 115 113 110 107 104 101 99 97 96 95 97 97 97 97 94 89 85 84 81 81 79 75 70 68 64 60 51
223 258 67 151 360 159 191 185 19 173 167 192 203 251 252 243 307 261 16 340 54 213 180 172 230 267 235 110 108 125 118 111 131 121 149 154 153 152 155 161 166 170 169 170 171 168 163 155 154 155 152 145 141 137 131 126 124 124 123 121 116 113 111 108 107 103 102 100 98 97 96 95 95 96 94 91 85 83 81 80 78 72 64 61 58 55
157 237 112 130 161 186 183 125 196 208 209 167 162 215 200 17 301 5 160 94 195 309 257 152 234 244 112 166 147 151 149 142 147 152 160 162 159 159 165 167 170 172 171 172 174 171 164 157 160 161 157 151 145 143 142 138 135 134 130 127 121 116 115 115 112 111 108 108 107 103 101 99 95 92 92 93 91 87 82 77 76 76 73 67 60 52
239 136 204 158 203 43 47 335 30 51 342 115 211 202 68 20 2 258 268 178 215 255 269 162 208 217 162 244 142 157 180 164 171 164 171 165 165 170 173 174 174 173 172 172 173 171 168 164 164 163 161 155 153 149 145 141 136 135 134 132 128 128 126 123 122 120 119 115 109 105 102 99 100 101 99 98 96 92 92 86 79 76 71 62 60 51
204 255 159 228 91 103 101 161 206 111 325 272 259 73 168 206 212 214 233 252 247 245 263 221 210 229 205 208 143 180 185 182 178 166 173 177 181 183 179 176 173 168 167 173 177 175 174 171 169 167 160 156 153 151 147 142 139 137 135 133 133 133 134 133 129 126 122 117 113 112 110 109 106 103 102 102 99 95 89 84 80 77 71 64 52 44
186 239 162 295 158 132 145 178 201 190 191 327 204 245 5 334 237 178 200 288 276 261 243 260 143 248 201 220 174 190 186 177 168 171 187 189 187 184 181 177 176 177 175 176 179 179 175 172 171 168 163 160 157 156 153 149 145 142 139 141 139 138 138 137 136 135 129 123 123 119 114 111 111 111 109 104 100 94 90 88 89 82 76 65 51 40
221 112 268 118 330 144 191 192 212 184 182 183 203 211 173 211 22 330 292 216 226 248 246 269 256 229 161 14 193 188 176 173 173 178 184 191 190 188 184 179 180 180 177 178 179 176 173 168 170 165 164 158 153 153 152 156 154 145 147 149 150 149 148 144 141 136 130 127 123 123 120 119 116 109 104 103 101 98 95 93 89 83 92 87 68 46
198 170 228 128 189 205 210 140 263 326 208 196 190 202 187 165 176 192 237 115 220 214 249 246 259 287 92 57 38 51 51 157 174 173 181 187 187 185 184 184 182 180 181 177 177 175 170 164 172 163 162 157 157 160 162 160 157 154 156 156 157 154 153 150 147 141 135 131 130 127 122 114 107 106 108 108 103 101 104 103 98 105 112 110 93 75
199 141 203 186 210 208 197 58 45 360 340 297 235 217 195 204 187 196 221 182 121 237 36 279 324 263 73 61 66 52 65 47 107 156 167 175 183 185 188 188 187 185 177 175 172 170 167 164 170 164 164 164 165 167 167 166 164 164 163 162 165 161 160 154 147 142 137 131 127 122 117 113 112 114 114 109 107 112 118 121 118 123 119 91 84 91
63 187 198 215 78 94 136 136 147 89 14 273 251 264 215 205 200 219 244 156 199 159 187 221 243 262 108 68 72 81 69 97 43 167 162 163 179 186 184 183 185 177 168 164 161 159 162 161 161 155 167 170 174 173 172 169 168 169 170 169 167 167 159 150 140 135 126 125 126 126 123 121 124 121 118 116 120 134 142 145 139 125 119 107 98 109
159 209 208 203 216 182 183 172 209 138 199 231 221 199 234 234 171 76 75 78 255 215 195 199 243 189 167 56 70 82 111 100 130 154 170 151 153 175 178 175 165 156 153 160 157 158 155 157 167 174 178 179 177 176 174 173 174 174 176 173 171 162 154 141 140 137 138 137 132 131 128 129 130 131 136 138 141 149 149 152 146 132 125 102 110 107
197 172 175 199 211 220 219 212 212 196 202 205 230 207 194 216 168 140 218 196 239 206 181 219 234 101 125 149 164 119 110 143 113 131 156 151 157 163 153 159 156 155 161 162 160 163 174 180 179 180 181 178 179 177 176 176 177 179 178 176 170 155 149 145 144 145 142 140 137 140 140 140 140 148 154 151 149 153 159 151 141 139 123 116 103 79
202 356 217 215 219 232 238 23 353 113 122 195 191 181 196 206 204 202 247 225 227 201 203 220 215 136 188 173 190 167 186 159 156 152 171 181 175 180 179 182 180 183 178 180 181 181 176 181 192 188 180 178 178 176 178 178 180 181 177 171 163 153 148 148 148 146 145 147 146 145 147 146 151 156 158 157 153 157 159 153 137 125 116 87 76 59
133 220 232 238 48 88 73 22 346 168 185 190 168 193 188 189 195 198 207 224 105 174 245 183 190 208 192 179 178 166 159 156 174 173 184 184 183 185 177 174 180 184 187 178 176 180 189 194 188 182 183 180 179 179 178 180 180 178 175 169 155 155 150 155 155 156 155 154 153 155 153 152 155 157 155 146 149 160 160 147 127 112 100 84 63 57
185 218 194 178 228 78 19 36 337 7 23 171 182 176 189 188 189 200 219 220 176 213 245 97 176 208 205 189 184 179 173 188 184 180 180 184 167 157 162 172 188 196 190 185 189 193 194 192 186 188 185 183 178 180 179 177 179 177 173 156 156 160 162 159 159 160 157 157 157 156 151 147 149 151 144 148 155 160 152 125 111 101 91 70 66 49
130 236 133 218 178 96 47 9 14 70 357 307 250 218 203 184 198 208 225 227 230 249 248 143 194 224 228 196 171 183 183 168 175 177 156 162 166 166 176 185 193 192 190 194 197 198 198 197 189 187 184 184 184 181 179 179 180 180 169 163 165 163 157 160 163 160 162 163 160 153 151 149 153 156 151 152 157 146 139 128 117 105 92 79 70 54
176 215 93 201 121 282 48 63 59 67 72 272 258 238 234 220 203 209 224 226 233 251 250 239 262 260 218 206 177 119 113 130 146 173 188 171 161 170 184 194 197 195 197 203 204 202 199 197 193 185 185 187 186 183 182 181 181 177 168 161 162 166 167 168 168 168 166 164 155 150 148 152 159 154 151 145 140 133 141 131 115 105 102 96 75 61
50 172 81 216 169 237 18 40 61 60 35 269 267 249 224 206 193 218 223 215 214 230 251 285 260 250 105 162 118 152 172 184 200 204 189 170 178 181 187 191 191 191 198 205 204 196 190 187 188 185 187 187 185 184 185 182 171 162 168 165 167 163 163 172 171 168 168 156 150 151 154 157 154 149 142 136 141 147 141 120 124 117 105 88 71 43
151 148 157 174 189 204 34 94 102 83 26 290 249 231 213 196 203 218 226 223 218 205 235 233 239 252 234 153 168 190 194 212 227 221 197 184 187 186 194 201 194 199 219 214 198 193 191 190 191 192 187 184 187 188 187 169 163 178 176 167 163 154 169 174 170 166 159 153 154 154 154 153 151 141 138 143 146 150 152 142 136 116 99 80 61 36
135 166 136 161 185 106 30 72 162 129 222 228 9 159 179 203 204 204 227 223 217 203 227 232 251 179 147 168 200 200 201 215 215 208 142 187 185 203 205 191 198 218 226 217 209 203 198 195 196 198 192 187 189 188 185 178 176 176 173 163 153 157 171 169 168 161 155 152 153 152 150 150 141 137 141 144 158 160 156 138 121 95 92 102 105 103
158 167 180 139 174 135 129 137 186 220 239 50 274 347 13 219 194 206 223 229 229 226 233 243 244 211 200 190 209 222 195 70 55 81 139 244 272 219 189 197 212 220 219 210 209 206 201 196 192 192 191 190 184 175 167 168 172 167 165 157 153 163 164 167 159 156 154 154 153 148 148 144 140 140 143 153 158 157 149 136 119 120 135 128 136 161
170 169 158 162 131 74 139 182 225 221 64 140 74 42 22 55 18 192 243 246 236 225 224 235 239 237 195 178 112 74 73 41 14 250 235 250 211 196 207 217 220 212 209 206 203 197 182 183 186 185 189 178 169 172 172 167 158 152 151 151 151 160 165 161 157 156 154 154 154 152 151 145 141 143 151 155 155 158 159 147 146 139 133 130 180 201
171 109 180 164 159 167 189 194 235 339 321 269 138 197 169 153 171 171 216 230 213 216 216 222 233 226 144 145 109 98 70 16 299 274 208 223 218 209 217 227 225 210 206 185 166 166 161 170 182 177 157 161 165 162 168 159 155 146 145 153 162 158 158 154 162 167 164 162 152 153 151 147 143 149 151 154 157 164 169 156 153 144 141 146 208 200
286 211 189 175 213 163 214 232 248 258 253 265 191 164 173 181 174 184 205 255 191 206 206 212 225 223 175 121 128 120 112 83 262 266 192 205 207 221 225 125 72 70 82 97 99 112 132 149 153 154 157 164 172 169 163 160 154 147 147 156 154 153 161 166 177 168 156 160 152 149 146 143 142 145 149 155 166 170 170 153 149 146 151 177 195 210
335 41 300 202 230 162 202 225 233 231 240 106 121 116 138 72 141 120 205 256 217 176 191 189 213 202 165 153 135 146 156 230 250 254 119 159 200 203 198 193 156 141 139 145 163 166 164 164 160 151 152 161 168 171 160 152 157 148 154 159 163 164 166 179 176 160 160 154 143 139 134 136 140 145 149 159 166 170 160 155 155 138 151 187 199 216
196 191 182 210 215 215 197 212 226 213 264 197 149 134 124 120 129 133 196 265 159 175 185 172 200 188 147 129 142 165 188 222 243 109 110 130 145 158 182 169 157 163 150 152 165 171 154 138 130 152 168 177 179 165 155 153 161 169 170 169 156 165 180 182 171 146 134 125 128 127 129 135 138 145 151 157 157 161 163 146 141 161 172 173 208 204
185 195 202 216 214 217 220 240 264 260 243 116 147 134 135 118 142 177 214 141 167 147 162 175 190 170 140 147 166 181 219 219 84 118 132 117 101 119 107 84 102 141 162 167 168 135 145 164 177 185 188 182 168 156 156 156 164 173 177 161 157 192 187 158 129 127 126 125 124 126 129 134 141 142 144 147 155 158 152 160 156 151 163 185 199 183
204 187 227 227 233 227 225 234 239 273 223 138 113 141 170 137 198 203 199 118 160 163 152 178 180 167 145 163 181 213 202 100 110 99 111 144 191 149 157 145 122 102 95 119 128 149 165 181 191 193 183 179 152 146 153 163 176 182 169 165 195 193 141 120 127 125 124 128 130 128 129 131 129 125 127 135 146 148 156 150 135 151 170 196 164 183
175 163 198 208 206 228 211 236 232 241 127 123 119 74 298 180 249 101 108 37 37 140 145 185 187 143 159 189 207 220 219 117 133 133 124 143 199 184 165 171 179 174 165 156 164 194 179 176 188 192 183 147 134 143 158 172 181 188 183 196 195 133 126 128 124 124 124 120 118 124 126 127 130 127 129 146 159 158 154 151 154 168 173 168 190 202
178 170 210 221 189 192 197 210 215 233 122 174 144 173 193 168 119 145 134 146 96 122 158 154 196 191 185 200 204 211 228 227 124 173 207 229 220 222 176 197 193 177 171 187 185 179 186 190 179 178 170 146 150 151 165 181 187 193 193 202 131 115 107 114 118 111 113 111 117 124 127 125 126 125 139 155 156 162 162 168 156 172 185 173 190 211
202 199 165 208 178 188 213 223 69 129 150 183 22 20 153 154 140 148 132 141 147 190 180 177 194 176 188 199 230 236 225 211 232 225 219 231 223 212 215 216 207 198 191 183 190 171 176 195 192 181 157 159 158 160 182 190 192 191 202 185 120 138 135 124 132 133 123 120 128 129 126 131 135 141 150 157 166 176 170 164 171 180 177 166 202 214
7 355 29 61 217 105 38 93 52 101 158 162 58 8 94 125 71 102 133 132 165 152 164 174 189 161 183 186 199 249 236 240 225 214 218 231 232 225 218 213 209 224 223 192 169 175 196 198 186 184 191 179 163 182 180 198 194 196 203 118 136 133 130 138 141 141 132 125 128 129 131 129 131 142 152 171 178 190 185 163 176 184 183 181 200 198
210 117 202 204 205 185 234 121 150 177 174 189 142 85 24 30 140 156 147 135 131 134 151 168 136 145 146 145 188 219 243 230 229 223 209 219 227 232 224 215 223 215 207 212 216 184 182 191 199 207 204 211 186 176 187 198 209 194 110 148 127 126 140 142 144 128 121 135 127 125 140 145 157 157 158 185 185 184 184 177 183 186 198 198 200 203
237 153 158 217 218 211 53 123 82 31 18 54 192 174 200 197 203 179 129 86 104 130 145 165 126 121 138 161 203 211 233 239 232 234 222 222 225 220 221 226 230 233 226 219 227 191 205 203 210 211 209 218 208 190 194 195 199 165 136 133 141 141 144 149 148 136 139 134 138 145 153 161 138 151 163 176 181 185 182 186 190 199 204 199 195 191
124 123 201 174 175 150 79 148 98 74 302 229 233 262 261 202 172 176 183 147 132 146 164 156 181 177 178 198 190 203 221 235 229 234 242 243 236 220 213 219 225 227 233 226 215 189 208 210 214 218 210 223 203 169 179 192 178 137 140 134 143 149 151 148 140 126 124 138 138 142 156 159 160 181 166 164 180 207 200 187 190 200 220 216 209 219
132 201 146 129 169 209 198 172 159 144 200 202 208 212 220 216 171 169 149 154 183 196 193 191 205 200 203 208 201 202 214 232 232 228 237 242 247 250 249 236 239 240 241 229 197 197 216 228 230 234 228 229 165 171 175 175 161 133 113 126 147 153 155 147 120 121 140 146 147 143 156 161 161 169 167 171 184 189 223 225 218 216 201 216 216 221
194 182 157 184 190 203 164 149 186 185 196 180 187 206 208 171 159 182 193 198 202 198 188 194 227 200 191 210 214 214 227 234 242 230 237 240 241 238 240 246 248 243 241 218 199 212 216 223 219 231 245 232 180 185 182 174 154 141 138 140 149 162 155 148 143 151 151 155 165 165 161 158 159 165 175 173 176 197 210 221 223 225 227 225 223 224